ARABSAT-5C

Last updated on Jan. 27, 2020, 4:38 a.m. UTC

1 37810U 11049B   20026.34972639  .00000117  00000-0  00000-0 0  9996
2 37810   0.0609  26.8277 0002155 268.1360 336.0215  1.00273988 30659
UTC
Height (km)
Latitude
Longitude
Inclination
Orbital Period
UTC large
Height (km)
Speed (km/s)
/
Latitude / Longitude
Inclination (degrees)
Orbital Period (minutes)
Azimuth
Elevation
Range (km)
Doppler Factor
iOS Compass Heading
iOS Angle

Next 30 passes for location: Hong Kong

Rise time Rise Azimuth (degrees) Set time Set Azimuth (degrees) Duration Max altitude (degrees)

No matching passes for this satellites